Time,TemperatureF,DewpointF,PressureIn,WindDirection,WindDirectionDegrees,WindSpeedMPH,WindSpeedGustMPH,Humidity,HourlyPrecipIn,Conditions,Clouds,dailyrainin,SoftwareType,DateUTC
2013-03-17 00:02:00,36.3,29.8,29.90,NE,50,10.0,-999.0,77,0.00,,,0.00,WeatherSnoop3.0,2013-03-17 05:02:00,
2013-03-17 00:07:00,36.2,29.7,29.91,NE,49,7.0,-999.0,77,0.00,,,0.00,WeatherSnoop3.0,2013-03-17 05:07:00,
2013-03-17 00:12:00,36.1,29.6,29.90,NE,44,10.0,-999.0,77,0.00,,,0.00,WeatherSnoop3.0,2013-03-17 05:12:00,
2013-03-17 00:17:00,36.1,29.6,29.90,NE,37,14.0,-999.0,77,0.00,,,0.00,WeatherSnoop3.0,2013-03-17 05:17:00,
2013-03-17 00:22:00,36.1,29.6,29.90,NE,34,14.0,-999.0,77,0.00,,,0.00,WeatherSnoop3.0,2013-03-17 05:22:00,
2013-03-17 00:27:00,36.0,29.5,29.90,ENE,70,6.0,-999.0,77,0.00,,,0.00,WeatherSnoop3.0,2013-03-17 05:27:00,
2013-03-17 00:32:00,36.0,29.8,29.90,NNW,331,3.0,-999.0,78,0.00,,,0.00,WeatherSnoop3.0,2013-03-17 05:32:00,
2013-03-17 00:37:00,36.0,29.8,29.91,NE,37,13.0,-999.0,78,0.00,,,0.00,WeatherSnoop3.0,2013-03-17 05:37:00,
2013-03-17 00:42:00,36.0,29.8,29.90,NE,49,10.0,-999.0,78,0.00,,,0.00,WeatherSnoop3.0,2013-03-17 05:42:00,
2013-03-17 00:47:00,36.0,29.8,29.91,NNE,26,4.0,-999.0,78,0.00,,,0.00,WeatherSnoop3.0,2013-03-17 05:47:00,
2013-03-17 00:52:00,35.8,29.3,29.91,NE,40,8.0,-999.0,77,0.00,,,0.00,WeatherSnoop3.0,2013-03-17 05:52:00,
2013-03-17 00:57:00,35.6,29.1,29.92,NE,50,11.0,-999.0,77,0.00,,,0.00,WeatherSnoop3.0,2013-03-17 05:57:00,
2013-03-17 01:02:00,35.4,28.9,29.92,NE,45,11.0,-999.0,77,0.00,,,0.00,WeatherSnoop3.0,2013-03-17 06:02:00,
2013-03-17 01:07:00,35.3,29.1,29.92,NNE,24,6.0,-999.0,78,0.00,,,0.00,WeatherSnoop3.0,2013-03-17 06:07:00,
2013-03-17 01:12:00,35.3,29.1,29.92,ENE,68,7.0,-999.0,78,0.00,,,0.00,WeatherSnoop3.0,2013-03-17 06:12:00,
2013-03-17 01:17:00,35.3,29.1,29.92,NE,53,8.0,-999.0,78,0.00,,,0.00,WeatherSnoop3.0,2013-03-17 06:17:00,
2013-03-17 01:22:00,35.2,29.0,29.92,NNW,338,4.0,-999.0,78,0.00,,,0.00,WeatherSnoop3.0,2013-03-17 06:22:00,
2013-03-17 01:27:00,35.2,29.0,29.91,NNE,26,10.0,-999.0,78,0.00,,,0.00,WeatherSnoop3.0,2013-03-17 06:27:00,
2013-03-17 01:32:00,35.2,29.4,29.91,ENE,59,4.0,-999.0,79,0.00,,,0.00,WeatherSnoop3.0,2013-03-17 06:32:00,
2013-03-17 01:37:00,35.2,29.0,29.91,North,10,10.0,-999.0,78,0.00,,,0.00,WeatherSnoop3.0,2013-03-17 06:37:00,
2013-03-17 01:43:00,35.2,29.4,29.92,NE,47,6.0,-999.0,79,0.00,,,0.00,WeatherSnoop3.0,2013-03-17 06:43:00,
2013-03-17 01:48:00,35.1,28.9,29.91,NE,49,8.0,-999.0,78,0.00,,,0.00,WeatherSnoop3.0,2013-03-17 06:48:00,
2013-03-17 01:53:00,35.1,28.9,29.91,NE,51,8.0,-999.0,78,0.00,,,0.00,WeatherSnoop3.0,2013-03-17 06:53:00,
2013-03-17 01:58:00,35.0,28.8,29.91,ENE,72,12.0,-999.0,78,0.00,,,0.00,WeatherSnoop3.0,2013-03-17 06:58:00,
2013-03-17 02:03:00,35.1,29.6,29.91,NNE,29,9.0,-999.0,80,0.00,,,0.00,WeatherSnoop3.0,2013-03-17 07:03:00,
2013-03-17 02:08:00,35.0,29.2,29.90,NNW,338,10.0,-999.0,79,0.00,,,0.00,WeatherSnoop3.0,2013-03-17 07:08:00,
2013-03-17 02:13:00,34.9,29.1,29.90,NNE,15,11.0,-999.0,79,0.00,,,0.00,WeatherSnoop3.0,2013-03-17 07:13:00,
2013-03-17 02:18:00,35.0,29.2,29.90,East,82,10.0,-999.0,79,0.00,,,0.00,WeatherSnoop3.0,2013-03-17 07:18:00,
2013-03-17 02:23:00,34.9,28.8,29.89,NNW,345,8.0,-999.0,78,0.00,,,0.00,WeatherSnoop3.0,2013-03-17 07:23:00,
2013-03-17 02:28:00,34.8,29.0,29.89,North,1,8.0,-999.0,79,0.00,,,0.00,WeatherSnoop3.0,2013-03-17 07:28:00,
2013-03-17 02:33:00,34.8,29.0,29.89,NE,53,6.0,-999.0,79,0.00,,,0.00,WeatherSnoop3.0,2013-03-17 07:33:00,
2013-03-17 02:38:00,34.8,29.3,29.89,NE,56,7.0,-999.0,80,0.00,,,0.00,WeatherSnoop3.0,2013-03-17 07:38:00,
2013-03-17 02:43:00,34.8,29.0,29.89,NE,39,4.0,-999.0,79,0.00,,,0.00,WeatherSnoop3.0,2013-03-17 07:43:00,
2013-03-17 02:48:00,34.7,28.9,29.90,ENE,59,6.0,-999.0,79,0.00,,,0.00,WeatherSnoop3.0,2013-03-17 07:48:00,
2013-03-17 02:54:00,34.8,29.0,29.90,NNE,16,8.0,-999.0,79,0.00,,,0.00,WeatherSnoop3.0,2013-03-17 07:54:00,
2013-03-17 02:59:00,34.8,29.3,29.89,NE,56,6.0,-999.0,80,0.00,,,0.00,WeatherSnoop3.0,2013-03-17 07:59:00,
2013-03-17 03:04:00,34.8,29.0,29.89,NE,41,9.0,-999.0,79,0.00,,,0.00,WeatherSnoop3.0,2013-03-17 08:04:00,
2013-03-17 03:09:00,34.8,29.0,29.88,ENE,58,9.0,-999.0,79,0.00,,,0.00,WeatherSnoop3.0,2013-03-17 08:09:00,
2013-03-17 03:14:00,34.8,28.7,29.88,NE,49,9.0,-999.0,78,0.00,,,0.00,WeatherSnoop3.0,2013-03-17 08:14:00,
2013-03-17 03:19:00,34.8,29.0,29.87,NE,51,6.0,-999.0,79,0.00,,,0.00,WeatherSnoop3.0,2013-03-17 08:19:00,
2013-03-17 03:24:00,34.8,29.0,29.87,NE,49,7.0,-999.0,79,0.00,,,0.00,WeatherSnoop3.0,2013-03-17 08:24:00,
2013-03-17 03:29:00,34.7,28.9,29.87,ENE,60,10.0,-999.0,79,0.00,,,0.00,WeatherSnoop3.0,2013-03-17 08:29:00,
2013-03-17 03:34:00,34.8,29.0,29.87,NE,37,7.0,-999.0,79,0.00,,,0.00,WeatherSnoop3.0,2013-03-17 08:34:00,
2013-03-17 03:39:00,34.7,28.6,29.87,ENE,57,11.0,-999.0,78,0.00,,,0.00,WeatherSnoop3.0,2013-03-17 08:39:00,
2013-03-17 03:44:00,34.7,28.9,29.87,NNE,20,6.0,-999.0,79,0.00,,,0.00,WeatherSnoop3.0,2013-03-17 08:44:00,
2013-03-17 03:49:00,34.8,28.7,29.86,ENE,68,4.0,-999.0,78,0.00,,,0.00,WeatherSnoop3.0,2013-03-17 08:49:00,
2013-03-17 03:54:00,34.8,28.7,29.87,NE,48,11.0,-999.0,78,0.00,,,0.00,WeatherSnoop3.0,2013-03-17 08:54:00,
2013-03-17 03:59:00,34.8,29.0,29.86,ENE,65,7.0,-999.0,79,0.00,,,0.00,WeatherSnoop3.0,2013-03-17 08:59:00,
2013-03-17 04:04:00,34.8,28.7,29.86,NE,46,3.0,-999.0,78,0.00,,,0.00,WeatherSnoop3.0,2013-03-17 09:04:00,
2013-03-17 04:09:00,34.7,28.6,29.86,NE,43,8.0,-999.0,78,0.00,,,0.00,WeatherSnoop3.0,2013-03-17 09:09:00,
2013-03-17 04:14:00,34.8,28.7,29.86,ENE,75,7.0,-999.0,78,0.00,,,0.00,WeatherSnoop3.0,2013-03-17 09:14:00,
2013-03-17 04:19:00,34.8,28.7,29.87,NE,46,4.0,-999.0,78,0.00,,,0.00,WeatherSnoop3.0,2013-03-17 09:19:00,
2013-03-17 04:24:00,34.9,28.8,29.87,ENE,59,5.0,-999.0,78,0.00,,,0.00,WeatherSnoop3.0,2013-03-17 09:24:00,
2013-03-17 04:29:00,34.8,28.7,29.87,NE,52,7.0,-999.0,78,0.00,,,0.00,WeatherSnoop3.0,2013-03-17 09:29:00,
2013-03-17 04:34:00,34.8,28.7,29.87,NNE,30,8.0,-999.0,78,0.00,,,0.00,WeatherSnoop3.0,2013-03-17 09:34:00,
2013-03-17 04:39:00,34.8,28.7,29.87,NE,50,7.0,-999.0,78,0.00,,,0.00,WeatherSnoop3.0,2013-03-17 09:39:00,
2013-03-17 04:44:00,34.8,28.3,29.88,NE,36,5.0,-999.0,77,0.00,,,0.00,WeatherSnoop3.0,2013-03-17 09:44:00,
2013-03-17 04:49:00,34.7,28.6,29.87,ENE,59,7.0,-999.0,78,0.00,,,0.00,WeatherSnoop3.0,2013-03-17 09:49:00,
2013-03-17 04:54:00,34.7,28.6,29.87,ENE,68,5.0,-999.0,78,0.00,,,0.00,WeatherSnoop3.0,2013-03-17 09:54:00,
2013-03-17 04:59:00,34.7,28.6,29.87,ENE,59,6.0,-999.0,78,0.00,,,0.00,WeatherSnoop3.0,2013-03-17 09:59:00,
2013-03-17 05:04:00,34.8,28.7,29.87,ENE,58,5.0,-999.0,78,0.00,,,0.00,WeatherSnoop3.0,2013-03-17 10:04:00,
2013-03-17 05:09:00,34.7,28.6,29.87,NE,43,2.0,-999.0,78,0.00,,,0.00,WeatherSnoop3.0,2013-03-17 10:09:00,
2013-03-17 05:14:00,34.7,28.9,29.87,NE,46,2.0,-999.0,79,0.00,,,0.00,WeatherSnoop3.0,2013-03-17 10:14:00,
2013-03-17 05:19:00,34.7,28.9,29.87,ENE,61,3.0,-999.0,79,0.00,,,0.00,WeatherSnoop3.0,2013-03-17 10:19:00,
2013-03-17 05:24:00,34.8,29.0,29.87,NNE,18,4.0,-999.0,79,0.00,,,0.00,WeatherSnoop3.0,2013-03-17 10:24:00,
2013-03-17 05:29:00,34.7,28.9,29.86,NE,48,2.0,-999.0,79,0.00,,,0.00,WeatherSnoop3.0,2013-03-17 10:29:00,
2013-03-17 05:34:00,34.8,29.0,29.87,ENE,65,4.0,-999.0,79,0.00,,,0.00,WeatherSnoop3.0,2013-03-17 10:34:00,
2013-03-17 05:39:00,34.8,29.0,29.87,East,84,5.0,-999.0,79,0.00,,,0.00,WeatherSnoop3.0,2013-03-17 10:39:00,
2013-03-17 05:44:00,34.8,28.7,29.86,NE,43,4.0,-999.0,78,0.00,,,0.00,WeatherSnoop3.0,2013-03-17 10:44:00,
2013-03-17 05:49:00,34.8,28.7,29.86,NE,50,5.0,-999.0,78,0.00,,,0.00,WeatherSnoop3.0,2013-03-17 10:49:00,
2013-03-17 05:54:00,34.8,29.0,29.85,ENE,77,2.0,-999.0,79,0.00,,,0.00,WeatherSnoop3.0,2013-03-17 10:54:00,
2013-03-17 05:59:00,34.9,28.8,29.85,NNE,32,5.0,-999.0,78,0.00,,,0.00,WeatherSnoop3.0,2013-03-17 10:59:00,
2013-03-17 06:04:00,34.9,29.1,29.86,ENE,71,5.0,-999.0,79,0.00,,,0.00,WeatherSnoop3.0,2013-03-17 11:04:00,
2013-03-17 06:09:00,34.9,28.8,29.86,ENE,75,8.0,-999.0,78,0.00,,,0.00,WeatherSnoop3.0,2013-03-17 11:09:00,
2013-03-17 06:14:00,34.7,28.6,29.86,NE,44,4.0,-999.0,78,0.00,,,0.00,WeatherSnoop3.0,2013-03-17 11:14:00,
2013-03-17 06:19:00,34.7,28.6,29.86,East,82,3.0,-999.0,78,0.00,,,0.00,WeatherSnoop3.0,2013-03-17 11:19:00,
2013-03-17 06:24:00,34.7,28.6,29.87,NE,48,7.0,-999.0,78,0.00,,,0.00,WeatherSnoop3.0,2013-03-17 11:24:00,
2013-03-17 06:29:00,34.7,28.9,29.86,NE,49,5.0,-999.0,79,0.00,,,0.00,WeatherSnoop3.0,2013-03-17 11:29:00,
2013-03-17 06:34:00,34.7,28.9,29.85,ENE,65,3.0,-999.0,79,0.00,,,0.00,WeatherSnoop3.0,2013-03-17 11:34:00,
2013-03-17 06:39:00,34.7,28.9,29.86,NNE,32,4.0,-999.0,79,0.00,,,0.00,WeatherSnoop3.0,2013-03-17 11:39:00,
2013-03-17 06:44:00,34.7,28.9,29.87,NE,55,3.0,-999.0,79,0.00,,,0.00,WeatherSnoop3.0,2013-03-17 11:44:00,
2013-03-17 06:49:00,34.8,29.0,29.87,ENE,71,4.0,-999.0,79,0.00,,,0.00,WeatherSnoop3.0,2013-03-17 11:49:00,
2013-03-17 06:54:00,34.8,29.0,29.88,ENE,71,3.0,-999.0,79,0.00,,,0.00,WeatherSnoop3.0,2013-03-17 11:54:00,
2013-03-17 06:59:00,34.8,29.0,29.88,North,352,2.0,-999.0,79,0.00,,,0.00,WeatherSnoop3.0,2013-03-17 11:59:00,
2013-03-17 07:04:00,34.8,29.0,29.89,ENE,65,3.0,-999.0,79,0.00,,,0.00,WeatherSnoop3.0,2013-03-17 12:04:00,
2013-03-17 07:09:00,34.8,29.0,29.89,NE,49,1.0,-999.0,79,0.00,,,0.00,WeatherSnoop3.0,2013-03-17 12:09:00,
2013-03-17 07:14:00,34.9,29.4,29.89,ENE,71,1.0,-999.0,80,0.00,,,0.00,WeatherSnoop3.0,2013-03-17 12:14:00,
2013-03-17 07:19:00,34.9,29.1,29.89,ENE,63,2.0,-999.0,79,0.00,,,0.00,WeatherSnoop3.0,2013-03-17 12:19:00,
2013-03-17 07:24:00,34.9,29.1,29.89,NE,44,4.0,-999.0,79,0.00,,,0.00,WeatherSnoop3.0,2013-03-17 12:24:00,
2013-03-17 07:29:00,35.0,29.2,29.88,ENE,75,2.0,-999.0,79,0.00,,,0.00,WeatherSnoop3.0,2013-03-17 12:29:00,
2013-03-17 07:34:00,34.9,29.1,29.88,NE,47,3.0,-999.0,79,0.00,,,0.00,WeatherSnoop3.0,2013-03-17 12:34:00,
2013-03-17 07:39:00,34.9,29.1,29.88,NE,43,1.0,-999.0,79,0.00,,,0.00,WeatherSnoop3.0,2013-03-17 12:39:00,
2013-03-17 07:44:00,34.9,29.1,29.88,NNE,32,5.0,-999.0,79,0.00,,,0.00,WeatherSnoop3.0,2013-03-17 12:44:00,
2013-03-17 07:49:00,34.8,29.3,29.88,NE,51,2.0,-999.0,80,0.00,,,0.00,WeatherSnoop3.0,2013-03-17 12:49:00,
2013-03-17 07:54:00,34.8,29.3,29.88,NNE,27,4.0,-999.0,80,0.00,,,0.00,WeatherSnoop3.0,2013-03-17 12:54:00,
2013-03-17 07:59:00,34.8,29.3,29.88,NNE,26,4.0,-999.0,80,0.00,,,0.00,WeatherSnoop3.0,2013-03-17 12:59:00,
2013-03-17 08:04:00,34.8,29.3,29.88,NE,44,3.0,-999.0,80,0.00,,,0.00,WeatherSnoop3.0,2013-03-17 13:04:00,
2013-03-17 08:09:00,34.8,29.3,29.88,NNE,23,5.0,-999.0,80,0.00,,,0.00,WeatherSnoop3.0,2013-03-17 13:09:00,
2013-03-17 08:14:00,34.8,29.3,29.88,NE,43,4.0,-999.0,80,0.00,,,0.00,WeatherSnoop3.0,2013-03-17 13:14:00,
2013-03-17 08:19:00,34.8,29.3,29.88,NNE,24,8.0,-999.0,80,0.00,,,0.00,WeatherSnoop3.0,2013-03-17 13:19:00,
2013-03-17 08:24:00,34.8,29.3,29.88,NE,34,6.0,-999.0,80,0.00,,,0.00,WeatherSnoop3.0,2013-03-17 13:24:00,
2013-03-17 08:29:00,34.9,29.4,29.88,NNE,12,4.0,-999.0,80,0.00,,,0.00,WeatherSnoop3.0,2013-03-17 13:29:00,
2013-03-17 08:34:00,34.9,29.4,29.88,East,83,5.0,-999.0,80,0.00,,,0.00,WeatherSnoop3.0,2013-03-17 13:34:00,
2013-03-17 08:39:00,35.1,29.6,29.87,NNE,17,3.0,-999.0,80,0.00,,,0.00,WeatherSnoop3.0,2013-03-17 13:39:00,
2013-03-17 08:44:00,35.1,29.6,29.87,ENE,59,7.0,-999.0,80,0.00,,,0.00,WeatherSnoop3.0,2013-03-17 13:44:00,
2013-03-17 08:49:00,35.2,30.0,29.86,NNE,32,4.0,-999.0,81,0.00,,,0.00,WeatherSnoop3.0,2013-03-17 13:49:00,
2013-03-17 08:54:00,35.6,30.1,29.86,NE,46,3.0,-999.0,80,0.00,,,0.00,WeatherSnoop3.0,2013-03-17 13:54:00,
2013-03-17 08:59:00,35.9,30.0,29.86,NNE,13,3.0,-999.0,79,0.00,,,0.00,WeatherSnoop3.0,2013-03-17 13:59:00,
2013-03-17 09:04:00,36.5,30.6,29.86,NE,47,3.0,-999.0,79,0.00,,,0.00,WeatherSnoop3.0,2013-03-17 14:04:00,
2013-03-17 09:09:00,36.5,30.3,29.87,North,349,4.0,-999.0,78,0.00,,,0.00,WeatherSnoop3.0,2013-03-17 14:09:00,
2013-03-17 09:14:00,36.3,30.1,29.87,NE,39,8.0,-999.0,78,0.00,,,0.00,WeatherSnoop3.0,2013-03-17 14:14:00,
2013-03-17 09:19:00,36.2,30.0,29.88,ENE,70,6.0,-999.0,78,0.00,,,0.00,WeatherSnoop3.0,2013-03-17 14:19:00,
2013-03-17 09:24:00,36.3,30.1,29.88,NNW,346,5.0,-999.0,78,0.00,,,0.00,WeatherSnoop3.0,2013-03-17 14:24:00,
2013-03-17 09:29:00,36.3,30.1,29.88,ENE,61,10.0,-999.0,78,0.00,,,0.00,WeatherSnoop3.0,2013-03-17 14:29:00,
2013-03-17 09:34:00,36.3,30.1,29.88,NNE,23,3.0,-999.0,78,0.00,,,0.00,WeatherSnoop3.0,2013-03-17 14:34:00,
2013-03-17 09:39:00,36.7,30.5,29.88,NE,50,2.0,-999.0,78,0.00,,,0.00,WeatherSnoop3.0,2013-03-17 14:39:00,
2013-03-17 09:44:00,36.6,30.1,29.88,ENE,58,6.0,-999.0,77,0.00,,,0.00,WeatherSnoop3.0,2013-03-17 14:44:00,
2013-03-17 09:49:00,36.5,30.3,29.88,ENE,78,4.0,-999.0,78,0.00,,,0.00,WeatherSnoop3.0,2013-03-17 14:49:00,
2013-03-17 09:54:00,36.5,30.3,29.87,NE,50,7.0,-999.0,78,0.00,,,0.00,WeatherSnoop3.0,2013-03-17 14:54:00,
2013-03-17 09:59:00,37.0,31.1,29.86,East,88,6.0,-999.0,79,0.00,,,0.00,WeatherSnoop3.0,2013-03-17 14:59:00,
2013-03-17 10:04:00,37.5,31.0,29.85,NE,43,6.0,-999.0,77,0.00,,,0.00,WeatherSnoop3.0,2013-03-17 15:04:00,
2013-03-17 10:09:00,38.3,31.7,29.85,NNE,33,7.0,-999.0,77,0.00,,,0.00,WeatherSnoop3.0,2013-03-17 15:09:00,
2013-03-17 10:14:00,38.4,31.5,29.85,NE,46,6.0,-999.0,76,0.00,,,0.00,WeatherSnoop3.0,2013-03-17 15:14:00,
2013-03-17 10:19:00,38.3,31.1,29.85,ENE,70,5.0,-999.0,75,0.00,,,0.00,WeatherSnoop3.0,2013-03-17 15:19:00,
2013-03-17 10:24:00,38.2,31.0,29.86,NNE,18,5.0,-999.0,75,0.00,,,0.00,WeatherSnoop3.0,2013-03-17 15:24:00,
2013-03-17 10:29:00,38.3,31.7,29.86,East,82,3.0,-999.0,77,0.00,,,0.00,WeatherSnoop3.0,2013-03-17 15:29:00,
2013-03-17 10:34:00,38.5,31.6,29.86,North,1,8.0,-999.0,76,0.00,,,0.00,WeatherSnoop3.0,2013-03-17 15:34:00,
2013-03-17 10:39:00,39.0,32.1,29.85,East,85,4.0,-999.0,76,0.00,,,0.00,WeatherSnoop3.0,2013-03-17 15:39:00,
2013-03-17 10:44:00,39.3,32.4,29.86,ENE,65,4.0,-999.0,76,0.00,,,0.00,WeatherSnoop3.0,2013-03-17 15:44:00,
2013-03-17 10:49:00,39.2,32.0,29.85,ENE,58,4.0,-999.0,75,0.00,,,0.00,WeatherSnoop3.0,2013-03-17 15:49:00,
2013-03-17 10:54:00,39.3,32.1,29.85,ENE,72,6.0,-999.0,75,0.00,,,0.00,WeatherSnoop3.0,2013-03-17 15:54:00,
2013-03-17 10:59:00,39.6,32.3,29.85,ENE,59,4.0,-999.0,75,0.00,,,0.00,WeatherSnoop3.0,2013-03-17 15:59:00,
2013-03-17 11:04:00,39.6,32.3,29.85,NNE,20,8.0,-999.0,75,0.00,,,0.00,WeatherSnoop3.0,2013-03-17 16:04:00,
2013-03-17 11:09:00,39.9,33.0,29.84,NE,54,5.0,-999.0,76,0.00,,,0.00,WeatherSnoop3.0,2013-03-17 16:09:00,
2013-03-17 11:14:00,40.1,32.8,29.84,East,87,4.0,-999.0,75,0.00,,,0.00,WeatherSnoop3.0,2013-03-17 16:14:00,
2013-03-17 11:19:00,40.2,32.6,29.84,ENE,65,5.0,-999.0,74,0.00,,,0.00,WeatherSnoop3.0,2013-03-17 16:19:00,
2013-03-17 11:24:00,40.4,32.8,29.84,North,357,6.0,-999.0,74,0.00,,,0.00,WeatherSnoop3.0,2013-03-17 16:24:00,
2013-03-17 11:29:00,40.3,33.0,29.83,ENE,57,4.0,-999.0,75,0.00,,,0.00,WeatherSnoop3.0,2013-03-17 16:29:00,
2013-03-17 11:35:00,40.4,33.1,29.83,ENE,68,5.0,-999.0,75,0.00,,,0.00,WeatherSnoop3.0,2013-03-17 16:35:00,
2013-03-17 11:40:00,40.6,33.3,29.83,NE,34,8.0,-999.0,75,0.00,,,0.00,WeatherSnoop3.0,2013-03-17 16:40:00,
2013-03-17 11:45:00,40.6,33.3,29.83,ENE,57,3.0,-999.0,75,0.00,,,0.00,WeatherSnoop3.0,2013-03-17 16:45:00,
2013-03-17 11:50:00,41.0,33.7,29.82,ENE,59,4.0,-999.0,75,0.00,,,0.00,WeatherSnoop3.0,2013-03-17 16:50:00,
2013-03-17 11:55:00,40.9,33.6,29.82,East,81,4.0,-999.0,75,0.00,,,0.00,WeatherSnoop3.0,2013-03-17 16:55:00,
2013-03-17 12:00:00,40.8,33.2,29.82,East,90,3.0,-999.0,74,0.00,,,0.00,WeatherSnoop3.0,2013-03-17 17:00:00,
2013-03-17 12:05:00,40.8,33.5,29.82,ENE,70,6.0,-999.0,75,0.00,,,0.00,WeatherSnoop3.0,2013-03-17 17:05:00,
2013-03-17 12:10:00,40.5,33.2,29.83,ENE,78,2.0,-999.0,75,0.00,,,0.00,WeatherSnoop3.0,2013-03-17 17:10:00,
2013-03-17 12:15:00,40.7,33.7,29.83,NE,51,5.0,-999.0,76,0.00,,,0.00,WeatherSnoop3.0,2013-03-17 17:15:00,
2013-03-17 12:20:00,40.8,34.2,29.83,ENE,58,6.0,-999.0,77,0.00,,,0.00,WeatherSnoop3.0,2013-03-17 17:20:00,
2013-03-17 12:25:00,40.6,33.6,29.83,ENE,65,5.0,-999.0,76,0.00,,,0.00,WeatherSnoop3.0,2013-03-17 17:25:00,
2013-03-17 12:30:00,40.7,34.1,29.83,NNE,26,3.0,-999.0,77,0.00,,,0.00,WeatherSnoop3.0,2013-03-17 17:30:00,
2013-03-17 12:35:00,40.5,33.5,29.83,NNE,25,5.0,-999.0,76,0.00,,,0.00,WeatherSnoop3.0,2013-03-17 17:35:00,
2013-03-17 12:40:00,40.4,33.4,29.82,ENE,78,3.0,-999.0,76,0.00,,,0.00,WeatherSnoop3.0,2013-03-17 17:40:00,
2013-03-17 12:45:00,40.8,34.2,29.81,NNE,32,4.0,-999.0,77,0.00,,,0.00,WeatherSnoop3.0,2013-03-17 17:45:00,
2013-03-17 12:50:00,40.8,33.8,29.81,ENE,68,3.0,-999.0,76,0.00,,,0.00,WeatherSnoop3.0,2013-03-17 17:50:00,
2013-03-17 12:55:00,40.8,33.8,29.81,ENE,65,6.0,-999.0,76,0.00,,,0.00,WeatherSnoop3.0,2013-03-17 17:55:00,
2013-03-17 13:00:00,41.1,34.1,29.81,East,100,3.0,-999.0,76,0.00,,,0.00,WeatherSnoop3.0,2013-03-17 18:00:00,
2013-03-17 13:05:00,41.0,33.4,29.81,NNE,26,6.0,-999.0,74,0.00,,,0.00,WeatherSnoop3.0,2013-03-17 18:05:00,
2013-03-17 13:10:00,40.9,33.3,29.81,NNW,338,5.0,-999.0,74,0.00,,,0.00,WeatherSnoop3.0,2013-03-17 18:10:00,
2013-03-17 13:15:00,40.7,33.4,29.80,ENE,68,5.0,-999.0,75,0.00,,,0.00,WeatherSnoop3.0,2013-03-17 18:15:00,
2013-03-17 13:20:00,40.7,33.4,29.80,ENE,57,4.0,-999.0,75,0.00,,,0.00,WeatherSnoop3.0,2013-03-17 18:20:00,
2013-03-17 13:25:00,41.0,34.0,29.80,ENE,78,3.0,-999.0,76,0.00,,,0.00,WeatherSnoop3.0,2013-03-17 18:25:00,
2013-03-17 13:30:00,40.9,33.3,29.80,NNE,22,6.0,-999.0,74,0.00,,,0.00,WeatherSnoop3.0,2013-03-17 18:30:00,
2013-03-17 13:35:00,40.6,33.3,29.79,ENE,65,2.0,-999.0,75,0.00,,,0.00,WeatherSnoop3.0,2013-03-17 18:35:00,
2013-03-17 13:40:00,40.6,33.0,29.78,North,11,4.0,-999.0,74,0.00,,,0.00,WeatherSnoop3.0,2013-03-17 18:40:00,
2013-03-17 13:45:00,40.7,33.7,29.78,NE,36,8.0,-999.0,76,0.00,,,0.00,WeatherSnoop3.0,2013-03-17 18:45:00,
2013-03-17 13:50:00,40.9,33.9,29.78,NE,54,3.0,-999.0,76,0.00,,,0.00,WeatherSnoop3.0,2013-03-17 18:50:00,
2013-03-17 13:55:00,40.5,33.2,29.77,NNE,15,6.0,-999.0,75,0.00,,,0.00,WeatherSnoop3.0,2013-03-17 18:55:00,
2013-03-17 14:00:00,40.1,33.2,29.77,NNE,13,4.0,-999.0,76,0.00,,,0.00,WeatherSnoop3.0,2013-03-17 19:00:00,
2013-03-17 14:05:00,40.2,33.3,29.77,North,8,5.0,-999.0,76,0.00,,,0.00,WeatherSnoop3.0,2013-03-17 19:05:00,
2013-03-17 14:10:00,40.0,33.1,29.77,North,358,7.0,-999.0,76,0.00,,,0.00,WeatherSnoop3.0,2013-03-17 19:10:00,
2013-03-17 14:15:00,40.0,33.1,29.77,NE,55,2.0,-999.0,76,0.00,,,0.00,WeatherSnoop3.0,2013-03-17 19:15:00,
2013-03-17 14:20:00,40.2,33.3,29.77,NNE,25,3.0,-999.0,76,0.00,,,0.00,WeatherSnoop3.0,2013-03-17 19:20:00,
2013-03-17 14:25:00,40.1,33.2,29.76,NE,53,7.0,-999.0,76,0.00,,,0.00,WeatherSnoop3.0,2013-03-17 19:25:00,
2013-03-17 14:30:00,40.0,33.1,29.76,NNE,26,5.0,-999.0,76,0.00,,,0.00,WeatherSnoop3.0,2013-03-17 19:30:00,
2013-03-17 14:35:00,40.0,33.1,29.76,NE,34,5.0,-999.0,76,0.00,,,0.00,WeatherSnoop3.0,2013-03-17 19:35:00,
2013-03-17 14:40:00,40.2,33.6,29.75,ENE,63,3.0,-999.0,77,0.00,,,0.00,WeatherSnoop3.0,2013-03-17 19:40:00,
2013-03-17 14:45:00,40.4,33.4,29.74,North,8,5.0,-999.0,76,0.00,,,0.00,WeatherSnoop3.0,2013-03-17 19:45:00,
2013-03-17 14:50:00,40.7,34.1,29.74,NE,47,5.0,-999.0,77,0.00,,,0.00,WeatherSnoop3.0,2013-03-17 19:50:00,
2013-03-17 14:55:00,40.8,34.2,29.74,NE,51,5.0,-999.0,77,0.00,,,0.00,WeatherSnoop3.0,2013-03-17 19:55:00,
2013-03-17 15:00:00,40.6,34.0,29.73,ENE,58,6.0,-999.0,77,0.00,,,0.00,WeatherSnoop3.0,2013-03-17 20:00:00,
2013-03-17 15:05:00,40.7,34.4,29.73,North,8,7.0,-999.0,78,0.00,,,0.00,WeatherSnoop3.0,2013-03-17 20:05:00,
2013-03-17 15:10:00,40.7,34.1,29.73,NE,44,5.0,-999.0,77,0.00,,,0.00,WeatherSnoop3.0,2013-03-17 20:10:00,
2013-03-17 15:15:00,40.8,34.2,29.72,NE,49,5.0,-999.0,77,0.00,,,0.00,WeatherSnoop3.0,2013-03-17 20:15:00,
2013-03-17 15:20:00,40.7,34.1,29.72,ENE,65,7.0,-999.0,77,0.00,,,0.00,WeatherSnoop3.0,2013-03-17 20:20:00,
2013-03-17 15:25:00,40.8,34.5,29.71,ENE,57,5.0,-999.0,78,0.00,,,0.00,WeatherSnoop3.0,2013-03-17 20:25:00,
2013-03-17 15:30:00,40.7,34.4,29.71,ENE,65,5.0,-999.0,78,0.00,,,0.00,WeatherSnoop3.0,2013-03-17 20:30:00,
2013-03-17 15:35:00,41.0,34.7,29.71,NE,34,3.0,-999.0,78,0.00,,,0.00,WeatherSnoop3.0,2013-03-17 20:35:00,
2013-03-17 15:40:00,41.0,34.4,29.71,North,5,4.0,-999.0,77,0.00,,,0.00,WeatherSnoop3.0,2013-03-17 20:40:00,
2013-03-17 15:45:00,41.1,34.8,29.71,NNE,16,4.0,-999.0,78,0.00,,,0.00,WeatherSnoop3.0,2013-03-17 20:45:00,
2013-03-17 15:50:00,41.3,34.6,29.70,ENE,68,4.0,-999.0,77,0.00,,,0.00,WeatherSnoop3.0,2013-03-17 20:50:00,
2013-03-17 15:55:00,41.3,35.0,29.71,NE,36,3.0,-999.0,78,0.00,,,0.00,WeatherSnoop3.0,2013-03-17 20:55:00,
2013-03-17 16:00:00,40.8,34.5,29.71,NNW,337,4.0,-999.0,78,0.00,,,0.00,WeatherSnoop3.0,2013-03-17 21:00:00,
2013-03-17 16:05:00,40.7,34.7,29.70,ENE,77,3.0,-999.0,79,0.00,,,0.00,WeatherSnoop3.0,2013-03-17 21:05:00,
2013-03-17 16:10:00,40.6,34.6,29.70,ENE,75,2.0,-999.0,79,0.00,,,0.00,WeatherSnoop3.0,2013-03-17 21:10:00,
2013-03-17 16:15:00,40.7,34.7,29.69,NE,53,4.0,-999.0,79,0.00,,,0.00,WeatherSnoop3.0,2013-03-17 21:15:00,
2013-03-17 16:20:00,40.8,35.1,29.69,NE,41,3.0,-999.0,80,0.00,,,0.00,WeatherSnoop3.0,2013-03-17 21:20:00,
2013-03-17 16:25:00,40.8,35.1,29.68,ENE,58,5.0,-999.0,80,0.00,,,0.00,WeatherSnoop3.0,2013-03-17 21:25:00,
2013-03-17 16:30:00,40.7,35.0,29.68,NE,36,3.0,-999.0,80,0.00,,,0.00,WeatherSnoop3.0,2013-03-17 21:30:00,
2013-03-17 16:35:00,40.8,35.1,29.68,NE,49,5.0,-999.0,80,0.00,,,0.00,WeatherSnoop3.0,2013-03-17 21:35:00,
2013-03-17 16:40:00,40.7,35.0,29.68,East,92,2.0,-999.0,80,0.00,,,0.00,WeatherSnoop3.0,2013-03-17 21:40:00,
2013-03-17 16:45:00,40.8,35.4,29.67,ENE,72,2.0,-999.0,81,0.00,,,0.00,WeatherSnoop3.0,2013-03-17 21:45:00,
2013-03-17 16:50:00,40.9,35.5,29.67,ENE,72,2.0,-999.0,81,0.00,,,0.00,WeatherSnoop3.0,2013-03-17 21:50:00,
2013-03-17 16:55:00,40.9,35.5,29.67,East,81,2.0,-999.0,81,0.00,,,0.00,WeatherSnoop3.0,2013-03-17 21:55:00,
2013-03-17 17:00:00,40.8,35.1,29.68,East,101,2.0,-999.0,80,0.00,,,0.00,WeatherSnoop3.0,2013-03-17 22:00:00,
2013-03-17 17:05:00,40.7,35.3,29.68,East,82,2.0,-999.0,81,0.00,,,0.00,WeatherSnoop3.0,2013-03-17 22:05:00,
2013-03-17 17:10:00,40.8,35.7,29.68,East,84,2.0,-999.0,82,0.00,,,0.00,WeatherSnoop3.0,2013-03-17 22:10:00,
2013-03-17 17:15:00,40.6,35.5,29.67,East,95,1.0,-999.0,82,0.00,,,0.00,WeatherSnoop3.0,2013-03-17 22:15:00,
2013-03-17 17:20:00,40.4,35.7,29.67,East,99,2.0,-999.0,83,0.00,,,0.00,WeatherSnoop3.0,2013-03-17 22:20:00,
2013-03-17 17:25:00,40.3,35.9,29.67,ENE,70,4.0,-999.0,84,0.00,,,0.00,WeatherSnoop3.0,2013-03-17 22:25:00,
2013-03-17 17:30:00,40.1,35.7,29.67,ESE,103,0.0,-999.0,84,0.00,,,0.00,WeatherSnoop3.0,2013-03-17 22:30:00,
2013-03-17 17:35:00,40.0,35.6,29.67,East,97,3.0,-999.0,84,0.00,,,0.00,WeatherSnoop3.0,2013-03-17 22:35:00,
2013-03-17 17:40:00,40.1,36.0,29.66,East,93,2.0,-999.0,85,0.00,,,0.00,WeatherSnoop3.0,2013-03-17 22:40:00,
2013-03-17 17:45:00,39.9,35.8,29.66,East,101,2.0,-999.0,85,0.00,,,0.00,WeatherSnoop3.0,2013-03-17 22:45:00,
2013-03-17 17:50:00,39.9,35.8,29.65,East,86,2.0,-999.0,85,0.00,,,0.00,WeatherSnoop3.0,2013-03-17 22:50:00,
2013-03-17 17:55:00,39.9,35.8,29.65,East,89,1.0,-999.0,85,0.00,,,0.00,WeatherSnoop3.0,2013-03-17 22:55:00,
2013-03-17 18:00:00,40.0,35.9,29.65,East,92,3.0,-999.0,85,0.00,,,0.00,WeatherSnoop3.0,2013-03-17 23:00:00,
2013-03-17 18:05:00,39.9,35.8,29.65,East,91,3.0,-999.0,85,0.00,,,0.00,WeatherSnoop3.0,2013-03-17 23:05:00,
2013-03-17 18:10:00,39.6,35.8,29.66,East,91,2.0,-999.0,86,0.00,,,0.00,WeatherSnoop3.0,2013-03-17 23:10:00,
2013-03-17 18:15:00,39.5,36.0,29.65,East,99,2.0,-999.0,87,0.00,,,0.00,WeatherSnoop3.0,2013-03-17 23:15:00,
2013-03-17 18:20:00,39.4,35.9,29.65,ESE,103,2.0,-999.0,87,0.00,,,0.00,WeatherSnoop3.0,2013-03-17 23:20:00,
2013-03-17 18:25:00,39.3,35.8,29.65,East,94,2.0,-999.0,87,0.00,,,0.00,WeatherSnoop3.0,2013-03-17 23:25:00,
2013-03-17 18:30:00,39.3,35.5,29.65,ESE,103,2.0,-999.0,86,0.00,,,0.00,WeatherSnoop3.0,2013-03-17 23:30:00,
2013-03-17 18:35:00,39.3,35.5,29.65,East,86,2.0,-999.0,86,0.00,,,0.00,WeatherSnoop3.0,2013-03-17 23:35:00,
2013-03-17 18:40:00,39.2,35.4,29.65,East,87,3.0,-999.0,86,0.00,,,0.00,WeatherSnoop3.0,2013-03-17 23:40:00,
2013-03-17 18:45:00,39.2,35.7,29.65,East,96,4.0,-999.0,87,0.00,,,0.00,WeatherSnoop3.0,2013-03-17 23:45:00,
2013-03-17 18:50:00,39.1,35.6,29.66,East,93,3.0,-999.0,87,0.00,,,0.00,WeatherSnoop3.0,2013-03-17 23:50:00,
2013-03-17 18:55:00,38.9,35.7,29.66,ESE,121,3.0,-999.0,88,0.00,,,0.00,WeatherSnoop3.0,2013-03-17 23:55:00,
2013-03-17 19:00:00,38.8,35.6,29.65,ENE,77,2.0,-999.0,88,0.00,,,0.00,WeatherSnoop3.0,2013-03-18 00:00:00,
2013-03-17 19:05:00,38.7,35.5,29.65,ESE,103,2.0,-999.0,88,0.00,,,0.00,WeatherSnoop3.0,2013-03-18 00:05:00,
2013-03-17 19:10:00,38.5,35.5,29.65,East,98,2.0,-999.0,89,0.00,,,0.00,WeatherSnoop3.0,2013-03-18 00:10:00,
2013-03-17 19:15:00,38.5,35.5,29.65,ENE,63,2.0,-999.0,89,0.00,,,0.00,WeatherSnoop3.0,2013-03-18 00:15:00,
2013-03-17 19:20:00,38.4,35.4,29.65,East,85,2.0,-999.0,89,0.00,,,0.00,WeatherSnoop3.0,2013-03-18 00:20:00,
2013-03-17 19:25:00,38.3,35.3,29.65,SE,129,1.0,-999.0,89,0.00,,,0.00,WeatherSnoop3.0,2013-03-18 00:25:00,
2013-03-17 19:30:00,38.4,35.4,29.65,ESE,108,2.0,-999.0,89,0.00,,,0.00,WeatherSnoop3.0,2013-03-18 00:30:00,
2013-03-17 19:35:00,38.3,35.3,29.66,East,101,4.0,-999.0,89,0.00,,,0.00,WeatherSnoop3.0,2013-03-18 00:35:00,
2013-03-17 19:40:00,38.1,35.2,29.66,East,91,2.0,-999.0,89,0.00,,,0.00,WeatherSnoop3.0,2013-03-18 00:40:00,
2013-03-17 19:45:00,37.9,35.2,29.65,East,91,5.0,-999.0,90,0.00,,,0.00,WeatherSnoop3.0,2013-03-18 00:45:00,
2013-03-17 19:50:00,37.7,35.0,29.65,ESE,105,4.0,-999.0,90,0.00,,,0.00,WeatherSnoop3.0,2013-03-18 00:50:00,
2013-03-17 19:55:00,37.6,35.2,29.65,East,89,3.0,-999.0,91,0.00,,,0.00,WeatherSnoop3.0,2013-03-18 00:55:00,
2013-03-17 20:00:00,37.6,35.2,29.65,East,89,4.0,-999.0,91,0.00,,,0.00,WeatherSnoop3.0,2013-03-18 01:00:00,
2013-03-17 20:05:00,37.5,35.1,29.65,ESE,103,3.0,-999.0,91,0.00,,,0.00,WeatherSnoop3.0,2013-03-18 01:05:00,
2013-03-17 20:10:00,37.6,35.2,29.66,East,86,3.0,-999.0,91,0.00,,,0.00,WeatherSnoop3.0,2013-03-18 01:10:00,
2013-03-17 20:15:00,37.6,34.9,29.65,East,94,3.0,-999.0,90,0.00,,,0.00,WeatherSnoop3.0,2013-03-18 01:15:00,
2013-03-17 20:20:00,37.5,35.1,29.64,East,92,6.0,-999.0,91,0.00,,,0.00,WeatherSnoop3.0,2013-03-18 01:20:00,
2013-03-17 20:25:00,37.5,35.1,29.66,ESE,110,2.0,-999.0,91,0.00,,,0.00,WeatherSnoop3.0,2013-03-18 01:25:00,
2013-03-17 20:30:00,37.5,35.1,29.68,South,186,2.0,-999.0,91,0.00,,,0.00,WeatherSnoop3.0,2013-03-18 01:30:00,
2013-03-17 20:35:00,37.5,35.1,29.71,SW,222,1.0,-999.0,91,0.00,,,0.00,WeatherSnoop3.0,2013-03-18 01:35:00,
2013-03-17 20:40:00,37.6,35.2,29.70,SSE,167,0.0,-999.0,91,0.00,,,0.00,WeatherSnoop3.0,2013-03-18 01:40:00,
2013-03-17 20:45:00,37.6,34.9,29.69,SE,134,0.0,-999.0,90,0.00,,,0.00,WeatherSnoop3.0,2013-03-18 01:45:00,
2013-03-17 20:50:00,37.6,35.2,29.69,SE,125,0.0,-999.0,91,0.00,,,0.00,WeatherSnoop3.0,2013-03-18 01:50:00,
2013-03-17 20:55:00,37.6,35.2,29.69,SE,146,0.0,-999.0,91,0.00,,,0.00,WeatherSnoop3.0,2013-03-18 01:55:00,
2013-03-17 21:00:00,37.6,35.2,29.69,ESE,106,1.0,-999.0,91,0.00,,,0.00,WeatherSnoop3.0,2013-03-18 02:00:00,
2013-03-17 21:05:00,37.6,35.5,29.69,SE,135,0.0,-999.0,92,0.00,,,0.00,WeatherSnoop3.0,2013-03-18 02:05:00,
2013-03-17 21:10:00,37.5,35.4,29.69,East,93,0.0,-999.0,92,0.00,,,0.00,WeatherSnoop3.0,2013-03-18 02:10:00,
2013-03-17 21:15:00,37.4,35.3,29.69,East,101,2.0,-999.0,92,0.00,,,0.00,WeatherSnoop3.0,2013-03-18 02:15:00,
2013-03-17 21:20:00,37.3,35.5,29.69,SE,138,1.0,-999.0,93,0.00,,,0.00,WeatherSnoop3.0,2013-03-18 02:20:00,
2013-03-17 21:25:00,37.3,35.5,29.69,ESE,105,1.0,-999.0,93,0.00,,,0.00,WeatherSnoop3.0,2013-03-18 02:25:00,
2013-03-17 21:30:00,37.2,35.4,29.69,ESE,119,1.0,-999.0,93,0.00,,,0.00,WeatherSnoop3.0,2013-03-18 02:30:00,
2013-03-17 21:35:00,37.2,35.4,29.68,SE,132,1.0,-999.0,93,0.00,,,0.00,WeatherSnoop3.0,2013-03-18 02:35:00,
2013-03-17 21:40:00,37.1,35.5,29.67,ESE,116,4.0,-999.0,94,0.00,,,0.00,WeatherSnoop3.0,2013-03-18 02:40:00,
2013-03-17 21:45:00,37.0,35.4,29.66,East,101,4.0,-999.0,94,0.00,,,0.00,WeatherSnoop3.0,2013-03-18 02:45:00,
2013-03-17 21:50:00,36.9,35.3,29.66,East,89,2.0,-999.0,94,0.00,,,0.00,WeatherSnoop3.0,2013-03-18 02:50:00,
2013-03-17 21:55:00,36.8,35.2,29.65,ENE,70,3.0,-999.0,94,0.00,,,0.00,WeatherSnoop3.0,2013-03-18 02:55:00,
2013-03-17 22:00:00,36.8,35.2,29.65,East,94,3.0,-999.0,94,0.00,,,0.00,WeatherSnoop3.0,2013-03-18 03:00:00,
2013-03-17 22:05:00,36.7,35.4,29.65,ESE,113,3.0,-999.0,95,0.00,,,0.00,WeatherSnoop3.0,2013-03-18 03:05:00,
2013-03-17 22:10:00,36.7,35.4,29.62,ESE,110,3.0,-999.0,95,0.00,,,0.00,WeatherSnoop3.0,2013-03-18 03:10:00,
2013-03-17 22:15:00,36.7,35.4,29.63,East,101,4.0,-999.0,95,0.00,,,0.00,WeatherSnoop3.0,2013-03-18 03:15:00,
2013-03-17 22:20:00,36.6,35.3,29.63,East,98,3.0,-999.0,95,0.00,,,0.00,WeatherSnoop3.0,2013-03-18 03:20:00,
2013-03-17 22:25:00,36.6,35.3,29.62,ESE,110,6.0,-999.0,95,0.00,,,0.00,WeatherSnoop3.0,2013-03-18 03:25:00,
2013-03-17 22:30:00,36.6,35.3,29.63,ESE,110,3.0,-999.0,95,0.00,,,0.00,WeatherSnoop3.0,2013-03-18 03:30:00,
2013-03-17 22:35:00,36.6,35.3,29.62,ESE,105,0.0,-999.0,95,0.00,,,0.00,WeatherSnoop3.0,2013-03-18 03:35:00,
2013-03-17 22:40:00,36.6,35.3,29.65,SE,141,2.0,-999.0,95,0.00,,,0.00,WeatherSnoop3.0,2013-03-18 03:40:00,
2013-03-17 22:45:00,36.7,35.4,29.68,South,188,3.0,-999.0,95,0.00,,,0.00,WeatherSnoop3.0,2013-03-18 03:45:00,
2013-03-17 22:50:00,36.7,35.1,29.68,SE,125,1.0,-999.0,94,0.00,,,0.00,WeatherSnoop3.0,2013-03-18 03:50:00,
2013-03-17 22:55:00,36.7,35.4,29.68,East,101,1.0,-999.0,95,0.00,,,0.00,WeatherSnoop3.0,2013-03-18 03:55:00,
2013-03-17 23:00:00,36.7,35.1,29.68,SE,146,1.0,-999.0,94,0.00,,,0.00,WeatherSnoop3.0,2013-03-18 04:00:00,
2013-03-17 23:02:00,36.7,35.1,29.68,East,101,1.0,-999.0,94,0.00,,,0.00,WeatherSnoop3.0,2013-03-18 04:02:00,
2013-03-17 23:04:00,36.6,35.3,29.67,East,89,2.0,-999.0,95,0.00,,,0.00,WeatherSnoop3.0,2013-03-18 04:04:00,
2013-03-17 23:09:00,36.7,35.4,29.66,East,89,1.0,-999.0,95,0.00,,,0.00,WeatherSnoop3.0,2013-03-18 04:09:00,
2013-03-17 23:14:00,36.7,35.4,29.69,SW,225,1.0,-999.0,95,0.00,,,0.00,WeatherSnoop3.0,2013-03-18 04:14:00,
2013-03-17 23:19:00,36.7,35.1,29.70,SW,233,0.0,-999.0,94,0.00,,,0.00,WeatherSnoop3.0,2013-03-18 04:19:00,
2013-03-17 23:24:00,36.7,35.4,29.69,ENE,72,1.0,-999.0,95,0.00,,,0.00,WeatherSnoop3.0,2013-03-18 04:24:00,
2013-03-17 23:29:00,36.7,35.4,29.70,SE,136,1.0,-999.0,95,0.00,,,0.00,WeatherSnoop3.0,2013-03-18 04:29:00,
2013-03-17 23:34:00,36.7,35.4,29.70,NE,44,0.0,-999.0,95,0.00,,,0.00,WeatherSnoop3.0,2013-03-18 04:34:00,
2013-03-17 23:39:00,36.7,35.4,29.70,SE,126,1.0,-999.0,95,0.00,,,0.00,WeatherSnoop3.0,2013-03-18 04:39:00,
2013-03-17 23:44:00,36.7,35.4,29.70,SSE,148,1.0,-999.0,95,0.00,,,0.00,WeatherSnoop3.0,2013-03-18 04:44:00,
2013-03-17 23:46:00,36.7,35.4,29.70,SE,135,0.0,-999.0,95,0.00,,,0.00,WeatherSnoop3.0,2013-03-18 04:46:00,
2013-03-17 23:51:00,36.7,35.4,29.70,East,88,0.0,-999.0,95,0.00,,,0.00,WeatherSnoop3.0,2013-03-18 04:51:00,
2013-03-17 23:56:00,36.7,35.4,29.70,East,88,0.0,-999.0,95,0.00,,,0.00,WeatherSnoop3.0,2013-03-18 04:56:00,